Weather History for Sidney-Richland, MT

Change the Weather History Date:

Thursday, March 7, 2013

  Actual Average Record
Temperature  
Mean Temperature 26 °F -  
Max Temperature 33 °F 39 °F 68 °F (1987)
Min Temperature 19 °F 14 °F -18 °F (1951)
Degree Days  
Heating Degree Days 39    
Moisture  
Dew Point 21 °F    
Average Humidity 83    
Maximum Humidity 93    
Minimum Humidity 75    
Precipitation  
Precipitation 0.03 in - - ()
Sea Level Pressure  
Sea Level Pressure 30.02 in    
Wind  
Wind Speed 8 mph (SW)    
Max Wind Speed 12 mph    
Max Gust Speed -    
Visibility 10 miles    
Events      
Averages and records for this station are not official NWS values.
T = Trace of Precipitation, MM = Missing Value Source: NWS Daily Summary

Daily Weather History Graph

Daily Weather History Graph

Search for Another Location

Airport:

Trip Planner

Search our weather history database for the weather conditions in past years. The results will help you decide how hot, cold, wet, or windy it might be!

Date:

Astronomy

Mar. 07, 2013 Rise Set
Actual Time 6:25 AM MST 5:50 PM MST
Civil Twilight 5:54 AM MST 6:21 PM MST
Nautical Twilight 5:18 AM MST 6:57 PM MST
Astronomical Twilight 4:42 AM MST 7:33 PM MST
Moon 3:42 AM MST (3/7) 1:27 PM MST (3/7)
Length of Visible Light 12h 27m
Length of Day
11h 25m
Waning Crescent, 19% of the Moon is Illuminated
Mar 7
Waning Crescent
Mar 11
New
Mar 19
First Quarter
Mar 27
Full
Apr 2
Last Quarter

Hourly Weather History & Observations

Time (MST) Temp. Windchill Dew Point Humidity Pressure Visibility Wind Dir Wind Speed Gust Speed Precip Events Conditions
12:15 AM 21.2 °F 10.1 °F 15.8 °F 80% 29.94 in 10.0 mi SE 10.4 mph - N/A   Overcast
12:55 AM 21.2 °F 12.6 °F 15.8 °F 80% 29.94 in 10.0 mi ESE 6.9 mph - N/A   Overcast
1:15 AM 21.2 °F 11.7 °F 15.8 °F 80% 29.93 in 10.0 mi ESE 8.1 mph - N/A   Overcast
1:35 AM 21.2 °F 10.1 °F 17.6 °F 86% 29.92 in 10.0 mi East 10.4 mph - N/A   Overcast
1:56 AM 21.2 °F 10.9 °F 17.6 °F 86% 29.92 in 10.0 mi ESE 9.2 mph - N/A   Overcast
2:15 AM 21.2 °F 11.7 °F 17.6 °F 86% 29.92 in 10.0 mi SE 8.1 mph - N/A   Overcast
2:35 AM 21.2 °F 10.9 °F 17.6 °F 86% 29.91 in 10.0 mi SE 9.2 mph - N/A   Overcast
2:55 AM 21.2 °F 10.1 °F 17.6 °F 86% 29.90 in 10.0 mi SE 10.4 mph - N/A   Overcast
3:15 AM 21.2 °F 12.6 °F 17.6 °F 86% 29.91 in 10.0 mi SSE 6.9 mph - N/A   Overcast
3:35 AM 23.0 °F 15.8 °F 17.6 °F 80% 29.91 in 10.0 mi SSE 5.8 mph - N/A   Overcast
3:55 AM 23.0 °F 13.9 °F 17.6 °F 80% 29.91 in 10.0 mi SSE 8.1 mph - N/A   Overcast
4:15 AM 23.0 °F 13.9 °F 19.4 °F 86% 29.92 in 10.0 mi SSE 8.1 mph - N/A   Overcast
4:35 AM 23.0 °F 13.9 °F 19.4 °F 86% 29.92 in 10.0 mi SSE 8.1 mph - N/A   Overcast
4:55 AM 23.0 °F 17.0 °F 19.4 °F 86% 29.92 in 10.0 mi SE 4.6 mph - N/A   Overcast
5:15 AM 24.8 °F 20.5 °F 19.4 °F 80% 29.92 in 10.0 mi ESE 3.5 mph - N/A   Overcast
5:35 AM 24.8 °F 19.1 °F 19.4 °F 80% 29.92 in 10.0 mi ESE 4.6 mph - N/A   Overcast
5:55 AM 24.8 °F - 19.4 °F 80% 29.93 in 10.0 mi Calm Calm - N/A   Overcast
6:15 AM 24.8 °F 20.5 °F 19.4 °F 80% 29.93 in 10.0 mi SE 3.5 mph - N/A   Overcast
6:35 AM 24.8 °F 20.5 °F 19.4 °F 80% 29.94 in 10.0 mi SE 3.5 mph - N/A   Overcast
6:55 AM 24.8 °F 20.5 °F 19.4 °F 80% 29.95 in 10.0 mi SSE 3.5 mph - N/A   Overcast
7:15 AM 24.8 °F 19.1 °F 21.2 °F 86% 29.94 in 10.0 mi ESE 4.6 mph - N/A   Overcast
7:36 AM 24.8 °F 16.9 °F 19.4 °F 80% 29.97 in 10.0 mi South 6.9 mph - N/A   Overcast
7:55 AM 24.8 °F 16.1 °F 21.2 °F 86% 29.97 in 10.0 mi South 8.1 mph - N/A   Overcast
8:15 AM 24.8 °F 14.6 °F 19.4 °F 80% 29.97 in 10.0 mi South 10.4 mph - N/A   Overcast
8:35 AM 26.6 °F 18.2 °F 21.2 °F 80% 29.95 in 10.0 mi SSE 8.1 mph - N/A   Overcast
8:55 AM 26.6 °F 19.1 °F 21.2 °F 80% 29.96 in 10.0 mi SSE 6.9 mph - N/A   Mostly Cloudy
9:15 AM 26.6 °F 19.1 °F 21.2 °F 80% 29.97 in 10.0 mi South 6.9 mph - N/A   Mostly Cloudy
9:35 AM 26.6 °F 17.5 °F 21.2 °F 80% 29.98 in 10.0 mi SSW 9.2 mph - N/A   Mostly Cloudy
9:55 AM 26.6 °F 16.8 °F 21.2 °F 80% 29.98 in 10.0 mi SSW 10.4 mph - N/A   Mostly Cloudy
10:35 AM 26.6 °F 16.8 °F 21.2 °F 80% 29.99 in 10.0 mi SW 10.4 mph - N/A   Overcast
10:55 AM 26.6 °F 17.5 °F 21.2 °F 80% 30.00 in 10.0 mi SW 9.2 mph - N/A   Overcast
11:15 AM 28.4 °F 19.7 °F 23.0 °F 80% 30.01 in 10.0 mi WSW 9.2 mph - N/A   Overcast
11:35 AM 28.4 °F 19.1 °F 23.0 °F 80% 30.01 in 10.0 mi West 10.4 mph - N/A   Overcast
11:55 AM 28.4 °F 19.7 °F 24.8 °F 86% 30.02 in 10.0 mi West 9.2 mph - N/A   Overcast
12:15 PM 28.4 °F 18.5 °F 23.0 °F 80% 30.02 in 10.0 mi West 11.5 mph - N/A   Overcast
12:35 PM 28.4 °F 20.4 °F 24.8 °F 86% 30.02 in 10.0 mi West 8.1 mph - N/A   Overcast
12:55 PM 30.2 °F 21.3 °F 24.8 °F 80% 30.02 in 10.0 mi West 10.4 mph - 0.01 in   Overcast
1:15 PM 30.2 °F 21.3 °F 24.8 °F 80% 30.03 in 10.0 mi West 10.4 mph - N/A   Overcast
1:35 PM 30.2 °F 21.9 °F 24.8 °F 80% 30.03 in 10.0 mi West 9.2 mph - N/A   Mostly Cloudy
1:55 PM 30.2 °F 22.6 °F 24.8 °F 80% 30.04 in 10.0 mi West 8.1 mph - N/A   Mostly Cloudy
2:15 PM 30.2 °F 21.3 °F 24.8 °F 80% 30.04 in 10.0 mi West 10.4 mph - N/A   Mostly Cloudy
2:35 PM 30.2 °F 21.9 °F 26.6 °F 86% 30.05 in 10.0 mi West 9.2 mph - N/A   Clear
2:55 PM 32.0 °F 23.0 °F 26.6 °F 80% 30.05 in 10.0 mi West 11.5 mph - N/A   Partly Cloudy
3:15 PM 33.8 °F 27.0 °F 26.6 °F 75% 30.05 in 10.0 mi West 8.1 mph - 0.01 in   Mostly Cloudy
3:35 PM 33.8 °F 25.3 °F 26.6 °F 75% 30.06 in 10.0 mi WNW 11.5 mph - 0.01 in   Scattered Clouds
3:55 PM 32.0 °F 23.6 °F 24.8 °F 75% 30.06 in 10.0 mi NW 10.4 mph - 0.02 in   Partly Cloudy
4:15 PM 32.0 °F 23.0 °F 24.8 °F 75% 30.07 in 10.0 mi WNW 11.5 mph - N/A   Partly Cloudy
4:35 PM 30.2 °F 21.3 °F 24.8 °F 80% 30.07 in 10.0 mi NW 10.4 mph - N/A   Partly Cloudy
4:55 PM 30.2 °F 24.3 °F 24.8 °F 80% 30.08 in 10.0 mi NW 5.8 mph - N/A   Clear
5:15 PM 28.4 °F 24.6 °F 24.8 °F 86% 30.09 in 10.0 mi WSW 3.5 mph - N/A   Clear
5:35 PM 28.4 °F 24.6 °F 23.0 °F 80% 30.10 in 10.0 mi SW 3.5 mph - N/A   Clear
5:55 PM 26.6 °F - 21.2 °F 80% 30.10 in 10.0 mi Calm Calm - N/A   Clear
6:15 PM 26.6 °F - 23.0 °F 86% 30.10 in 10.0 mi Calm Calm - N/A   Clear
6:35 PM 23.0 °F 18.4 °F 19.4 °F 86% 30.10 in 10.0 mi WSW 3.5 mph - N/A   Clear
6:55 PM 23.0 °F - 19.4 °F 86% 30.11 in 10.0 mi Calm Calm - N/A   Clear
7:15 PM 21.2 °F 16.4 °F 19.4 °F 93% 30.12 in 10.0 mi WSW 3.5 mph - N/A   Clear
7:35 PM 24.8 °F 19.1 °F 23.0 °F 93% 30.12 in 10.0 mi SW 4.6 mph - N/A   Clear
7:55 PM 21.2 °F 14.9 °F 19.4 °F 93% 30.13 in 10.0 mi SSW 4.6 mph - N/A   Clear
8:15 PM 23.0 °F 17.0 °F 21.2 °F 93% 30.13 in 10.0 mi SW 4.6 mph - N/A   Clear
8:55 PM 23.0 °F 17.0 °F 21.2 °F 93% 30.14 in 10.0 mi West 4.6 mph - N/A   Clear
9:15 PM 24.8 °F 16.1 °F 19.4 °F 80% 30.14 in 10.0 mi West 8.1 mph - N/A   Clear
9:35 PM 23.0 °F 13.9 °F 17.6 °F 80% 30.14 in 10.0 mi West 8.1 mph - N/A   Clear
9:55 PM 21.2 °F 10.9 °F 19.4 °F 93% 30.14 in 10.0 mi West 9.2 mph - N/A   Clear
10:35 PM 21.2 °F 13.6 °F 17.6 °F 86% 30.15 in 10.0 mi WNW 5.8 mph - N/A   Clear
10:55 PM 21.2 °F 11.7 °F 15.8 °F 80% 30.16 in 10.0 mi NW 8.1 mph - N/A   Clear
11:15 PM 19.4 °F 7.9 °F 15.8 °F 86% 30.16 in 10.0 mi NW 10.4 mph - N/A   Clear
11:35 PM 19.4 °F 7.9 °F 15.8 °F 86% 30.16 in 10.0 mi WNW 10.4 mph - N/A   Clear
11:55 PM 19.4 °F 7.2 °F 15.8 °F 86% 30.16 in 10.0 mi NW 11.5 mph - N/A   Clear